Total_Precipitation_Accumulation
0.68 0.71 0.77 0.87 0.85 0.83 0.81 0.75 0.72 0.73 0.80 0.82 0.82 0.88 0.92 0.94 0.95 1.01 1.01 0.97 0.95 0.91 0.88 0.89 0.90 0.92 0.99 0.98 0.93 0.89 0.86 0.95 0.97 0.50 0.37 0.41 0.50 0.55 0.55 0.51 0.46 0.45 0.47
0.68 0.71 0.73 0.84 0.92 0.90 0.94 0.92 0.81 0.74 0.75 0.82 0.86 0.88 0.96 1.01 1.00 1.04 1.08 1.09 1.13 1.10 1.00 0.96 0.95 0.97 1.02 1.05 1.11 1.08 0.98 0.92 0.99 0.79 0.51 0.50 0.60 0.65 0.67 0.66 0.60 0.54 0.50
0.67 0.72 0.76 0.80 0.88 0.91 0.93 1.01 1.00 0.97 0.98 0.97 1.01 1.05 1.08 1.13 1.17 1.19 1.21 1.26 1.32 1.32 1.26 1.20 1.10 1.07 1.11 1.09 1.12 1.14 1.08 1.00 0.96 0.92 0.71 0.61 0.64 0.66 0.74 0.76 0.74 0.71 0.64
0.65 0.77 0.78 0.81 0.83 0.87 0.92 0.97 1.10 1.18 1.26 1.31 1.29 1.28 1.30 1.35 1.47 1.55 1.54 1.53 1.50 1.46 1.43 1.40 1.33 1.26 1.24 1.22 1.24 1.19 1.13 1.13 1.08 1.05 0.91 0.79 0.77 0.73 0.82 0.88 0.90 0.86 0.81
0.61 0.72 0.78 0.83 0.93 1.00 1.02 1.05 1.10 1.23 1.33 1.34 1.37 1.39 1.37 1.55 1.84 1.96 1.81 1.60 1.47 1.40 1.35 1.33 1.37 1.45 1.46 1.49 1.56 1.44 1.34 1.37 1.31 1.25 1.11 0.93 0.83 0.85 0.90 0.91 1.03 0.99 0.95
0.59 0.66 0.74 0.87 0.99 1.11 1.13 1.18 1.20 1.25 1.35 1.36 1.34 1.36 1.34 1.44 1.85 1.97 1.61 1.29 1.21 1.27 1.27 1.19 1.18 1.33 1.39 1.46 1.59 1.59 1.59 1.63 1.62 1.50 1.34 1.15 0.92 0.87 0.94 1.10 1.23 1.31 1.24
0.51 0.62 0.68 0.81 0.94 1.04 1.08 1.11 1.15 1.10 1.08 1.18 1.25 1.20 1.16 1.24 1.58 1.68 1.39 1.00 0.90 0.99 1.04 1.04 1.01 1.07 1.24 1.21 1.30 1.35 1.42 1.54 1.68 1.72 1.68 1.37 1.13 1.02 1.19 1.34 1.36 1.43 1.36
0.45 0.57 0.60 0.70 0.84 0.91 0.97 1.02 1.03 0.97 0.95 1.05 1.08 1.00 0.93 0.97 1.29 1.43 1.23 0.88 0.83 0.88 0.92 0.94 0.92 0.93 1.08 1.26 1.30 1.19 1.12 1.22 1.45 1.61 1.74 1.56 1.37 1.35 1.56 1.76 1.81 1.80 1.66
0.38 0.48 0.54 0.62 0.78 0.80 0.86 0.96 0.95 0.96 0.94 0.92 0.91 0.86 0.79 0.81 1.07 1.34 1.22 0.84 0.87 0.88 0.89 0.94 0.90 0.84 1.09 1.29 1.28 1.19 1.07 1.07 1.19 1.47 1.64 1.68 1.69 1.78 1.95 2.21 2.34 2.39 2.23
0.35 0.42 0.46 0.51 0.65 0.68 0.70 0.77 0.81 0.83 0.86 0.87 0.84 0.79 0.75 0.72 0.89 1.25 1.29 0.89 0.87 0.86 0.87 0.92 1.04 1.02 1.16 1.23 1.16 1.18 1.20 1.06 0.95 1.03 1.14 1.22 1.26 1.36 1.67 1.91 2.15 2.38 2.34
0.31 0.36 0.40 0.44 0.51 0.55 0.60 0.64 0.69 0.73 0.77 0.82 0.82 0.75 0.67 0.67 0.75 1.03 1.37 1.12 0.92 0.84 0.85 0.90 0.94 1.08 1.12 1.17 1.21 1.19 1.30 1.14 0.96 1.02 1.06 1.05 1.08 1.17 1.33 1.56 1.89 2.17 2.36
0.29 0.34 0.38 0.42 0.44 0.48 0.53 0.59 0.61 0.69 0.79 0.81 0.79 0.77 0.70 0.67 0.72 0.91 1.18 1.28 1.12 0.93 0.87 0.76 0.79 0.96 1.01 1.10 1.12 1.18 1.23 1.18 1.11 1.13 1.11 1.07 1.08 1.15 1.25 1.37 1.59 1.83 2.00
0.30 0.34 0.40 0.43 0.40 0.47 0.53 0.60 0.64 0.70 0.80 0.82 0.78 0.76 0.74 0.72 0.79 0.98 1.00 1.05 1.15 1.02 0.95 0.97 0.89 0.93 0.96 0.92 0.97 1.08 1.10 1.05 1.13 1.14 1.04 0.99 0.99 1.07 1.13 1.23 1.32 1.51 1.70
0.29 0.33 0.39 0.46 0.46 0.46 0.51 0.59 0.64 0.69 0.83 0.89 0.86 0.82 0.75 0.73 0.86 1.08 1.01 0.95 1.05 1.06 1.04 1.01 0.98 0.98 0.96 0.90 0.92 0.93 0.92 0.97 1.06 1.04 0.94 0.86 0.87 0.97 1.09 1.20 1.31 1.40 1.60
0.28 0.31 0.37 0.46 0.50 0.47 0.49 0.54 0.61 0.64 0.84 1.01 0.95 0.95 0.93 0.94 1.03 1.24 1.24 1.17 1.20 1.21 1.21 1.18 1.10 1.06 1.04 0.95 0.89 0.86 0.88 0.94 0.98 0.91 0.89 0.88 0.88 0.94 1.03 1.11 1.28 1.39 1.53
0.33 0.35 0.40 0.47 0.50 0.49 0.49 0.53 0.61 0.64 0.71 0.75 0.82 0.92 0.90 1.00 1.07 1.04 1.11 1.16 1.19 1.24 1.26 1.21 1.03 0.93 0.91 0.86 0.85 0.84 0.82 0.81 0.80 0.83 0.87 0.86 0.89 0.94 0.98 1.03 1.20 1.35 1.42
0.37 0.41 0.45 0.48 0.49 0.50 0.48 0.52 0.58 0.57 0.59 0.63 0.69 0.77 0.89 0.97 0.93 0.92 0.99 1.01 1.03 1.03 1.01 0.90 0.83 0.82 0.81 0.79 0.79 0.79 0.79 0.73 0.73 0.79 0.81 0.81 0.84 0.90 0.94 0.98 1.06 1.19 1.26
0.37 0.43 0.48 0.49 0.49 0.48 0.46 0.48 0.53 0.59 0.65 0.67 0.73 0.80 0.88 0.93 0.91 0.92 0.98 1.03 1.02 0.94 0.82 0.78 0.77 0.76 0.76 0.78 0.79 0.79 0.77 0.75 0.77 0.80 0.80 0.79 0.84 0.91 0.93 0.92 0.96 1.07 1.14
0.40 0.44 0.48 0.50 0.49 0.44 0.43 0.46 0.49 0.53 0.62 0.71 0.78 0.85 0.93 0.93 0.90 0.91 0.92 0.88 0.87 0.83 0.78 0.75 0.72 0.72 0.76 0.80 0.82 0.81 0.81 0.80 0.78 0.81 0.81 0.80 0.81 0.87 0.89 0.83 0.85 0.97 1.10
0.43 0.52 0.56 0.54 0.51 0.46 0.45 0.48 0.51 0.55 0.61 0.69 0.78 0.84 0.95 1.00 0.95 0.92 0.83 0.78 0.83 0.83 0.80 0.79 0.74 0.72 0.78 0.84 0.88 0.88 0.87 0.83 0.80 0.81 0.77 0.74 0.74 0.78 0.81 0.77 0.79 0.88 0.95
0.47 0.50 0.57 0.56 0.54 0.52 0.54 0.56 0.57 0.61 0.66 0.69 0.73 0.83 1.07 1.08 0.92 0.79 0.74 0.73 0.78 0.82 0.82 0.81 0.80 0.81 0.83 0.87 0.87 0.87 0.87 0.82 0.79 0.79 0.78 0.74 0.72 0.73 0.72 0.75 0.75 0.78 0.84
0.50 0.52 0.51 0.54 0.58 0.61 0.64 0.63 0.64 0.66 0.67 0.70 0.71 0.77 0.87 0.82 0.76 0.72 0.70 0.70 0.71 0.75 0.80 0.87 0.86 0.82 0.83 0.88 0.90 0.88 0.83 0.77 0.71 0.72 0.74 0.72 0.70 0.69 0.69 0.70 0.71 0.74 0.78
0.54 0.57 0.55 0.56 0.60 0.67 0.67 0.61 0.64 0.67 0.71 0.74 0.74 0.76 0.75 0.75 0.73 0.70 0.71 0.71 0.71 0.70 0.73 0.82 0.85 0.79 0.75 0.78 0.82 0.85 0.83 0.75 0.67 0.68 0.75 0.74 0.70 0.66 0.66 0.67 0.65 0.69 0.74
0.57 0.57 0.59 0.62 0.65 0.66 0.66 0.66 0.67 0.69 0.76 0.81 0.80 0.79 0.78 0.77 0.75 0.70 0.68 0.69 0.70 0.68 0.70 0.76 0.77 0.74 0.71 0.73 0.75 0.74 0.73 0.74 0.75 0.74 0.73 0.73 0.70 0.65 0.67 0.68 0.66 0.65 0.69
0.56 0.58 0.61 0.67 0.71 0.71 0.71 0.71 0.71 0.73 0.79 0.84 0.84 0.83 0.79 0.76 0.73 0.70 0.66 0.67 0.70 0.70 0.68 0.70 0.72 0.72 0.69 0.67 0.69 0.71 0.79 0.86 0.91 0.97 1.03 1.02 0.89 0.75 0.73 0.72 0.68 0.65 0.67
0.55 0.58 0.63 0.71 0.76 0.76 0.77 0.78 0.76 0.77 0.84 0.85 0.83 0.83 0.81 0.79 0.75 0.73 0.72 0.71 0.75 0.73 0.70 0.67 0.66 0.70 0.70 0.68 0.68 0.74 0.82 0.87 0.98 1.17 1.34 1.36 1.11 0.85 0.75 0.75 0.69 0.67 0.69